Regional Weather Roundup
Issued by NWS

Home | Current Version | Previous Version | Graphics & Text | Print | Product List | Glossary On
Versions: 1 2 3 4 5 6 7 8 9 10 11 12 13 14 15 16 17 18 19 20 21 22 23 24 25 26 27 28 29 30 31 32 33 34 35 36 37 38 39 40 41 42 43 44 45 46 47 48 49 50
000
ASUS44 KMEG 050210
RWRTN
TENNESSEE HOURLY STATE WEATHER ROUNDUP
NATIONAL WEATHER SERVICE MEMPHIS TN
900 PM CDT TUE AUG 04 2015

TNZ002-004-019-021-049-052-054-088>092-050300-
WEST TENNESSEE

CITY           SKY/WX    TMP DP  RH WIND       PRES   REMARKS
MEMPHIS INTL   CLOUDY    90  68  48 E7        29.97R HX  94
NWS MEMPHIS      N/A     82 N/A N/A MISG        N/A
JACKSON        MOCLDY    81  73  76 CALM      29.99R
DYERSBURG        N/A    N/A N/A N/A MISG        N/A
UNION CITY     CLEAR     81  75  83 CALM      29.97R
PARIS          CLEAR     77  73  88 CALM      30.00S
LEXINGTON      CLEAR     79  75  89 CALM      29.99R
$$

TNZ008-025-027-028-033-062-065-066-050300-
NORTH MIDDLE TENNESSEE

CITY           SKY/WX    TMP DP  RH WIND       PRES   REMARKS
NASHVILLE      MOCLDY    87  67  51 CALM      30.01R HX  90
CLARKSVILLE    MOCLDY    81  70  69 NE6       30.01R
SMYRNA         MOCLDY    82  71  69 CALM      30.01R
COOKEVILLE     CLEAR     79  75  89 NE5       30.03R
CROSSVILLE     CLOUDY    76  70  82 CALM      30.09R
$$

TNZ061-075-076-078-094-096-097-050300-
SOUTH MIDDLE TENNESSEE

CITY           SKY/WX    TMP DP  RH WIND       PRES   REMARKS
FAYETTEVILLE     N/A     82  66  57 CALM      30.02R
TULLAHOMA      CLEAR     81  72  74 CALM      30.05R
WINCHESTER     CLEAR     79  73  83 CALM      30.03R
MCMINNVILLE    PTCLDY    79  75  89 CALM      30.04R
COLUMBIA       CLEAR     82  75  78 CALM      30.00R
SHELBYVILLE    CLEAR     79  73  83 CALM      30.03R
$$

TNZ017-018-042-046-047-050300-
NORTHEAST TENNESSEE

CITY           SKY/WX    TMP DP  RH WIND       PRES   REMARKS
TRI CITIES     CLOUDY    69  67  93 CALM      30.09R
ELIZABETHTON   CLEAR     64  64 100 CALM      30.11R
$$

TNZ012-013-036-069-073-074-050300-
CENTRAL EAST TENNESSEE

CITY           SKY/WX    TMP DP  RH WIND       PRES   REMARKS
KNOXVILLE      MOCLDY    82  71  69 NE8       30.03R
OAK RIDGE      MOCLDY    82  70  66 NE3       30.05R
GATLINBURG     PTCLDY    79  64  61 VRB6      30.05R
MORRISTOWN     CLEAR     72  64  78 CALM      30.09R
$$

TNZ083-085-099-050300-
SOUTHEAST TENNESSEE

CITY           SKY/WX    TMP DP  RH WIND       PRES   REMARKS
CHATTANOOGA    MOCLDY    85  71  63 CALM      30.00R HX  90
$$

SKY/WX REPORTED AS FAIR MEANS FEW OR NO CLOUDS BELOW
12 THOUSAND FEET.




USA.gov is the U.S. government's official web portal to all federal, state and local government web resources and services.